OKEAN-O (25860 NORAD) Tracking and Keplerian Element Data

This shows tracking and keplerian element data for the satellite.

Feedback or suggestion? Click here.




ElementValue
Catalog25860
NameOKEAN-O
Epoch Orbit31804
Epoch Day12.7205807
Epoch Year2024
RAAN65.2075
Inclination98.061
Eccentricity0.0001471
Argument of Perigee69.276
Mean Anonmoly290.8608
Mean Motion14.78016327
Decay Rate1.207E-05
L11 25860U 99039A 24012.72058070 .00001207 00000+0 17443-3 0 9990
L22 25860 98.0610 65.2075 0001471 69.2760 290.8608 14.78016327318043



Live tracking and technical data element details for OKEAN-O (NORAD 25860). OKEAN-O can be tracked NOW for your location showing map with azimuth and elevation plus other details from your city location.







IsCatalogInMostPopularTable: catalog: 25860, numindb: 527
Update: records affected: 1



GetName: 25860 OKEAN-O

Hit Count: updated at: Sun, 14 Apr 2024 23:11:14 GMT